weather.gov     
National Weather Service

Regional Weather Roundup
NWS Homepage
This page is being discontinued on March 12, 2014.
The same data is available at this site. Please update your bookmarks.
Thank you, and we apologize for the inconvenience.
Please send an email to SR-SRH.Webmaster@noaa.gov with any concerns.


Current Version
Previous Version:    01  02  03  04  05  06  07  08  09  10  11  12  13  14  15  16  17  18  19  20  21  22  23  24  25  26  27  28  29  30  
   31  32  33  34  35  36  37  38  39  40  41  42  43  44  45  46  47  48  49  50  51  52  53  54  
[Printable]
168
ASUS45 KPSR 252210
RWRAZ

ARIZONA REGIONAL HOURLY WEATHER ROUNDUP
NATIONAL WEATHER SERVICE PHOENIX AZ
300 PM MST SAT OCT 25 2014

NOTE: FAIR INDICATES FEW OR NO CLOUDS BELOW 12,000 FEET WITH NO
SIGNIFICANT WEATHER AND/OR OBSTRUCTIONS TO VISIBILITY.

AZZ001>003-036-252300-
NORTHWEST ARIZONA

CITY           SKY/WX    TMP DP  RH WIND       PRES   REMARKS
BULLHEAD CITY  SUNNY     93  45  18 S9        29.91F
KINGMAN        MOSUNNY   82  43  25 SW15      30.08F
$$

AZZ004>008-015-016-018-252300-
NORTH CENTRAL ARIZONA

CITY           SKY/WX    TMP DP  RH WIND       PRES   REMARKS
GRAND CANYON   PTSUNNY   68  40  35 SW21G28   30.27F
PRESCOTT       MOSUNNY   77  45  32 SW14      30.19F
FLAGSTAFF      MOSUNNY   66  41  40 SW14G21   30.31F
PAYSON         PTSUNNY   77  45  31 S9        30.23F
PAGE           SUNNY     78  36  21 VRB6      30.10F
$$

AZZ009>014-017-252300-
NORTHEAST ARIZONA

CITY           SKY/WX    TMP DP  RH WIND       PRES   REMARKS
WINSLOW        PTSUNNY   82  39  21 SW13G18   30.18F
SAINT JOHNS    SUNNY     79  34  19 W14G29    30.22F
WINDOW ROCK    SUNNY     73  35  25 SW14G21   30.30F
SHOW LOW       SUNNY     72  39  30 SW17G23   30.32F
$$

AZZ023-252300-
GREATER PHOENIX AREA

CITY           SKY/WX    TMP DP  RH WIND       PRES   REMARKS
PHOENIX        MOSUNNY   94  47  20 VRB3      29.92F
BUCKEYE          N/A     91  50  24 CALM      29.93F
GLENDALE       MOSUNNY   93  50  22 CALM      29.95F
LUKE AFB       SUNNY    N/A N/A N/A CALM        N/A
DEER VALLEY    SUNNY     91  47  21 S3        29.95F
SCOTTSDALE     SUNNY     93  49  22 CALM      29.97F
MESA-FALCON    MOSUNNY   93  50  22 SW7       29.95F
MESA-GATEWAY   MOSUNNY   93  52  24 W3        29.97F
CHANDLER       PTSUNNY   93  52  24 W6        29.94F
$$

AZZ027-028-252300-
SOUTHWEST MARICOPA COUNTY AND PINAL COUNTY

CITY           SKY/WX    TMP DP  RH WIND       PRES   REMARKS
CASA GRANDE    MOSUNNY   95  48  20 CALM      29.96S
$$

AZZ503-504-507>509-252300-
SOUTHEAST ARIZONA

CITY           SKY/WX    TMP DP  RH WIND       PRES   REMARKS
TUCSON         MOSUNNY   94  46  19 S7        30.03F
DAVIS-MONTHAN  SUNNY     94  49  21 SW13      30.01F
RYAN FIELD       N/A     95  48  20 E3        30.01F
NOGALES        SUNNY     87  47  24 SW10G20   30.13S
SIERRA VISTA   MOSUNNY   86  44  23 W7        30.18F
DOUGLAS        SUNNY     85  45  24 SW5       30.15F
SAFFORD        SUNNY     87  44  22 SW3       30.08F
$$

AZZ020-021-025-026-031-252300-
SOUTHWEST ARIZONA

CITY           SKY/WX    TMP DP  RH WIND       PRES   REMARKS
YUMA           SUNNY     96  46  18 CALM      29.88F
$$

CAZ031-033-041-043-047-048-061-252300-
SOUTHERN CALIFORNIA

CITY           SKY/WX    TMP DP  RH WIND       PRES   REMARKS
DOWNTOWN L.A.  SUNNY     78  52  40 W5        30.01S
L.A. AIRPORT   MOSUNNY   73  61  64 W15       30.02F
SAN DIEGO      PTSUNNY   74  62  66 NW10      30.03F
BURBANK        MOSUNNY   82  44  26 SE8       30.01F
ONTARIO        SUNNY     84  43  23 W13       30.00F
RIVERSIDE      SUNNY     83  43  24 W10       30.00F
PALM SPRINGS   MOSUNNY   95  47  19 E8        29.91F
EL CENTRO NAS  MOSUNNY   96  45  17 CALM      29.87F
IMPERIAL       SUNNY     95  47  19 CALM      29.87F
BLYTHE         SUNNY     95  47  19 NE6       29.90F
NEEDLES        MOSUNNY   93  45  19 CALM      29.92F
$$

NVZ020-UTZ003-252300-
SOUTHERN NEVADA-UTAH

CITY           SKY/WX    TMP DP  RH WIND       PRES   REMARKS
LAS VEGAS      MOSUNNY   87  41  19 SW18G29   29.92F
SALT LAKE CITY PTSUNNY   77  31  18 S23G31    29.94F
$$

NMZ009-TXZ055-252300-
NEW MEXICO-WEST TEXAS

CITY           SKY/WX    TMP DP  RH WIND       PRES   REMARKS
ALBUQUERQUE    SUNNY     78  33  19 VRB5      30.21F
EL PASO        SUNNY     84  41  21 W7        30.14F
$$


........................KEY........................
SKY/WX - SKY CONDITION/WEATHER
TMP    - TEMPERATURE IN FAHRENHEIT
DP     - DEW POINT IN FAHRENHEIT
RH     - RELATIVE HUMIDITY IN PERCENT
WIND   - DIRECTION AND SPEED IN MILES PER HOUR (MPH)
VRB    - VARIABLE WIND DIRECTION
PRES   - MEAN SEA LEVEL PRESSURE IN INCHES OF MERCURY
         F - FALLING PRESSURE   R - RISING PRESSURE
         S - STEADY PRESSURE
VSB    - VISIBILITY IN MILES
HX     - HEAT INDEX IN FAHRENHEIT
WCI    - WIND CHILL INDEX IN FAHRENHEIT
TC     - TEMPERATURE IN CELSIUS WHICH IS ALSO KNOWN AS
         TEMPERATURE IN CENTIGRADE
AFB    - AIR FORCE BASE
         LUKE AFB IS LUKE AIR FORCE BASE
         DAVIS-MONTHAN IS DAVIS-MONTHAN AIR FORCE BASE
NAS    - NAVAL AIR STATION
         EL CENTRO NAS IS EL CENTRO NAVAL AIR STATION
N/A    - NOT AVAILABLE




U.S. Dept. of Commerce
NOAA National Weather Service
1325 East West Highway
Silver Spring, MD 20910
E-mail: w-nws.webmaster@noaa.gov
Page last modified: May 16, 2007
NATIONAL WEATHER SERVICE: for Safety, for Work, for Fun - FOR LIFE